SCP
0 0 0 0 0 0 0 0 0 0 0 0 0 0 0 0 0 0 0 0 0 0 0 0 0 0 0 0 0 0 0 0 0 0 0 0 0 0 0 0 0 0 0 0
0 0 0 0 0 0 0 0 0 0 0 0 0 0 0 0 0 0 0 0 0 0 0 0 0 0 0 0 0 0 0 0 0 0 0 0 0 0 0 0 0 0 0 0
0 0 0 0 0 0 0 0 0 0 0 0 0 0 0 0 0 0 0 0 0 0 0 0 0 0 0 0 0 0 0 0 0 0 0 0 0 0 0 0 0 0 0 0
0 0 0 0 0 0 0 0 0 0 0 0 0 0 0 0 0 0 0 0 0 0 0 0 0 0 0 0 0 0 0 0 0 0 0 0 0 0 0 0 0 0 0 0
0 0 0 0 0 0 0 0 0 0 0 0 0 0 0 0 0 0 0 0 0 0 0 0 0 0 0 0 0 0 0 0 0 0 0 0 0 0 0 0 0 0 0 0
0 0 0 0 0 0 0 0 0 0 0 0 0 0 0 0 0 0 0 0 0 0 0 0 0 0 0 0 0 0 0 0 0 0 0 0 0 0 0 0 0 0 0 0
0 0 0 0 0 0 0 0 0 0 0 0 0 0 0 0 0 0 0 0 0 0 0 0 0 0 0 0 0 0 0 0 0 0 0 0 0 0 0 0 0 0 0 0
0 0 0 0 0 0 0 0 0 0 0 0 0 0 0 0 0 0 0 0 0 0 0 0 0 0 0 0 0 0 0 0 0 0 0 0 0 0 0 0 0 0 0 0
0 0 0 0 0 0 0 0 0 0 0 0 0 0 0 0 0 0 0 0 0 0 0 0 0 0 0 0 0 0 0 0 0 0 0 0 0 0 0 0 0 0 0 0
0 0 0 0 0 0 0 0 0 0 0 0 0 0 0 0 0 0 0 0 0 0 0 0 0 0 0 0 0 0 0 0 0 0 0 0 0 0 0 0 0 0 0 0
0 0 0 0 0 0 0 0 0 0 0 0 0 0 0 0 0 0 0 0 0 0 0 0 0 0 0 0 0 0 0 0 0 0 0 0 0 0 0 0 0 0 0 0
0 0 0 0 0 0 0 0 0 0 0 0 0 0 0 0 0 0 0 0 0 0 0 0 0 0 0 0 0 0 0 0 0 0 0 0 0 0 0 0 0 0 0 0
0 0 0 0 0 0 0 0 0 0 0 0 0 0 0 0 0 0 0 0 0 0 0 0 0 0 0 0 0 0 0 0 0 0 0 0 0 0 0 0 0 0 0 0
0 0 0 0 0 0 0 0 0 0 0 0 0 0 0 0 0 0 0 0 0 0 0 0 0 0 0 0 0 0 0 0 0 0 0 0 0 0 0 0 0 0 0 0
0 0 0 0 0 0 0 0 0 0 0 0 0 0 0 0 0 0 0 0 0 0 0 0 0 0 0 0 0 0 0 0 0 0 0 0 0 0 0 0 0 0 0 0
0 0 0 0 0 0 0 0 0 0 0 0 0 0 0 0 0 0 0 0 0 0 0 0 0 0 0 0 0 0 0 0 0 0 0 0 0 0 0 0 0 0 0 0
0 0 0 0 0 0 0 0 0 0 0 0 0 0 0 0 0 0 0 0 0 0 0 0 0 0 0 0 0 0 0 0 0 0 0 0 0 0 0 0 0 0 0 0
0 0 0 0 0 0 0 0 0 0 0 0 0 0 0 0 0 0 0 0 0 0 0 0 0 0 0 0 0 0 0 0 0 0 0 0 0 0 0 0 0 0 0 0
0 0 0 0 0 0 0 0 0 0 0 0 0 0 0 0 0 0 0 0 0 0 0 0 0 0 0 0 0 0 0 0 0 0 0 0 0 0 0 0 0 0 0 0
0 0 0 0 0 0 0 0 0 0 0 0 0 0 0 0 0 0 0 0 0 0 0 0 0 0 0 0 0 0 0 0 0 0 0 0 0 0 0 0 0 0 0 0
0 0 0 0 0 0 0 0 0 0 0 0 0 0 0 0 0 0 0 0 0 0 0 0 0 0 0 0 0 0 0 0 0 0 0 0 0 0 0 0 0 0 0 0
0 0 0 0 0 0 0 0 0 0 0 0 0 0 0 0 0 0 0 0 0 0 0 0 0 0 0 0 0 0 0 0 0 0 0 0 0 0 0 0 0 0 0 0
0 0 0 0 0 0 0 0 0 0 0 0 0 0 0 0 0 0 0 0 0 0 0 0 0 0 0 0 0 0 0 0 0 0 0 0 0 0 0 0 0 0 0 0
0 0 0 0 0 0 0 0 0 0 0 0 0 0 0 0 0 0 0 0 0 0 0 0 0 0 0 0 0 0 0 0 0 0 0 0 0 0 0 0 0 0 0 0
0 0 0 0 0 0 0 0 0 0 0 0 0 0 0 0 0 0 0 0 0 0 0 0 0 0 0 0 0 0 0 0 0 0 0 0 0 0 0 0 0 0 0 0
0 0 0 0 0 0 0 0 0 0 0 0 0 0 0 0 0 0 0 0 0 0 0 0 0 0 0 0 0 0 0 0 0 0 0 0 0 0 0 0 0 0 0 0
0 0 0 0 0 0 0 0 0 0 0 0 0 0 0 0 0 0 0 0 0 0 0 0 0 0 0 0 0 0 0 0 0 0 0 0 0 0 0 0 0 0 0 0
Wind_Speed_500mb
47 41 34 26 23 20 19 13 5 4 2 7 2 2 6 12 14 7 4 6 6 6 9 10 7 6 5 22 3 6 4 8 4 2 3 3 5 3 7 9 5 4 6 7
50 43 36 29 23 17 13 9 9 2 6 2 4 10 9 10 8 8 10 6 6 4 9 13 7 5 7 19 9 5 4 7 6 13 12 12 12 10 8 9 7 4 9 6
52 46 40 33 26 18 9 6 4 4 10 4 3 5 7 10 8 5 6 6 11 10 13 12 11 6 10 12 10 14 9 8 9 11 5 3 8 13 8 6 6 8 3 7
54 50 44 38 30 21 10 5 5 2 4 5 6 5 5 8 11 12 18 9 9 12 9 10 9 5 4 12 10 9 9 8 5 9 11 13 9 14 20 10 2 5 10 6
57 53 48 41 34 25 19 4 3 3 9 11 4 7 5 5 8 7 8 10 5 9 12 11 13 10 3 3 13 8 8 3 4 12 15 15 16 14 13 13 11 11 9 2
60 58 54 48 40 31 18 14 8 6 5 5 4 5 8 4 5 15 10 9 16 19 7 31 25 22 23 13 8 5 8 9 5 1 5 5 12 9 7 5 6 6 3 8
64 63 58 53 46 38 26 13 8 5 5 2 2 5 6 5 7 10 7 16 12 18 58 54 45 49 44 45 28 9 9 8 4 3 5 4 6 5 5 11 3 4 3 5
71 66 63 58 50 43 38 15 11 6 3 6 9 13 8 3 12 9 11 13 23 34 22 11 10 11 11 13 14 18 11 9 8 7 5 2 4 5 2 3 3 2 5 11
73 70 66 61 52 46 39 26 16 7 3 4 8 5 6 3 4 8 7 18 24 11 9 7 6 4 6 3 5 1 9 13 9 4 7 6 4 5 29 7 7 6 10 15
71 74 69 63 56 49 44 34 18 8 3 5 6 4 3 2 5 7 3 4 6 6 5 7 4 3 5 5 6 4 8 8 8 3 5 3 5 25 13 7 7 13 14 18
71 74 71 65 59 52 47 39 20 10 5 5 12 18 8 2 4 8 5 8 9 9 9 6 3 5 1 7 3 2 5 7 1 4 5 4 18 6 5 4 9 11 19 20
69 75 70 67 60 55 47 39 27 16 12 2 11 14 19 17 5 10 6 8 6 8 9 3 6 5 5 4 3 5 4 8 8 6 7 4 14 21 14 9 9 12 13 19
62 75 70 67 62 58 50 41 30 15 1 5 9 6 13 14 5 13 6 6 8 10 9 13 6 10 6 5 4 6 4 4 8 5 3 11 15 13 10 10 11 10 15 26
64 78 68 67 63 59 54 40 32 17 4 3 4 8 15 22 12 14 9 18 26 22 13 10 6 7 5 6 6 6 4 5 9 3 4 13 9 9 9 8 8 14 26 33
71 77 69 67 63 56 57 37 33 21 6 5 10 15 17 24 25 30 29 26 25 12 9 11 4 7 7 5 5 1 6 12 8 8 26 12 14 13 8 6 15 25 31 27
67 75 69 69 65 57 53 17 28 22 7 4 3 7 9 15 21 25 27 27 23 15 10 9 8 6 4 6 3 4 7 15 8 12 31 14 25 16 6 8 18 26 23 22
72 77 71 69 64 67 44 14 23 31 16 5 6 6 5 11 14 17 18 18 17 11 10 7 8 5 4 5 6 22 20 16 27 29 31 25 21 8 3 11 19 20 17 17
82 78 70 65 61 55 24 16 42 40 10 2 7 3 4 6 6 7 8 7 9 12 7 7 5 8 3 2 8 32 28 34 33 33 7 10 19 11 2 12 15 11 15 19
86 82 74 60 56 21 24 31 43 27 5 5 6 9 7 9 9 7 6 7 8 5 6 4 5 3 5 12 39 44 45 33 32 25 16 18 12 6 5 11 11 9 15 17
93 89 42 19 47 47 49 23 11 8 4 6 5 10 5 12 6 6 4 7 3 4 3 4 4 7 12 12 37 43 48 24 33 28 22 18 10 3 4 7 8 6 11 14
87 23 14 67 71 30 10 11 12 9 4 12 12 10 11 11 8 7 3 5 1 4 6 6 3 7 9 21 39 47 34 26 23 7 11 9 3 2 4 6 1 7 9 11
37 29 78 72 21 8 10 5 8 6 12 20 25 18 16 14 9 9 4 6 4 4 5 5 4 7 10 36 48 50 40 30 21 12 6 2 4 5 6 5 7 8 7 10
76 56 17 16 5 9 16 17 7 7 20 27 29 16 12 11 8 12 6 6 5 8 4 6 9 9 27 52 57 49 39 28 17 10 3 5 7 8 6 7 8 6 4 9
13 9 11 10 10 10 10 10 12 15 33 58 59 24 9 9 8 7 8 2 7 4 1 10 6 41 52 57 53 46 36 23 13 6 2 5 7 6 8 10 9 7 5 9
8 14 12 12 12 14 29 36 42 41 74 76 41 20 12 7 8 4 7 5 4 9 9 6 12 58 60 57 48 37 29 20 11 5 1 3 4 7 10 10 10 8 7 9
11 8 8 6 14 8 23 44 39 66 77 62 24 11 8 3 9 7 10 15 12 8 9 11 37 64 60 54 44 33 24 14 8 4 0 1 4 9 12 11 13 10 11 14
10 6 14 15 21 30 41 45 49 75 76 14 15 9 12 12 8 6 9 11 7 11 17 23 50 67 62 54 44 33 21 14 7 2 1 1 10 15 13 14 13 12 13 16
Wind_Direction_500mb
230 229 234 239 254 277 303 315 339 310 293 8 21 232 219 305 286 336 328 104 92 117 105 71 84 105 319 342 321 55 353 128 80 127 360 266 38 109 111 111 223 69 133 256
228 227 227 229 239 258 289 300 280 263 218 194 303 292 279 260 301 331 348 65 72 80 110 101 90 107 12 30 55 96 183 22 45 354 355 9 43 348 81 95 95 167 138 239
222 222 221 222 227 237 252 297 342 216 195 203 172 316 290 296 309 294 23 49 90 83 46 20 136 110 29 27 73 86 90 81 135 169 207 203 20 350 357 96 95 165 195 140
215 217 217 217 220 223 213 249 269 318 290 295 242 320 287 307 359 346 29 26 45 121 92 56 89 81 64 29 29 47 86 81 60 42 83 82 93 49 36 70 30 97 165 108
210 212 214 214 216 213 214 234 292 318 286 301 215 179 263 311 327 7 342 100 16 89 135 168 166 130 137 153 27 58 24 123 7 46 63 74 71 39 57 53 55 67 83 32
209 209 210 211 211 207 203 218 257 281 287 335 148 214 263 275 304 24 70 115 91 52 356 115 106 98 94 89 102 93 72 118 82 93 318 269 32 357 43 75 36 158 263 238
206 205 208 210 208 207 203 217 206 247 293 334 243 323 278 288 306 135 33 42 81 123 107 98 86 78 72 61 42 71 113 88 75 146 26 55 275 10 80 117 86 59 66 272
206 203 205 210 207 206 206 219 216 235 229 286 295 329 302 54 85 77 69 43 120 141 100 61 53 359 29 28 34 26 62 118 64 105 74 189 192 260 311 315 281 253 282 320
203 201 203 206 205 203 204 205 225 242 231 330 311 318 329 103 55 28 64 81 137 162 78 77 108 165 147 51 16 48 48 71 103 79 102 173 255 314 351 136 322 358 350 335
199 199 200 203 202 199 200 201 226 230 285 19 30 46 292 41 86 107 39 63 107 66 63 74 113 103 163 118 110 11 13 9 79 73 113 277 331 317 336 52 262 3 6 351
195 195 198 200 198 197 197 195 211 208 258 66 71 61 50 74 56 123 132 69 15 51 65 110 169 105 117 83 96 113 136 119 122 75 75 8 356 359 67 195 51 7 357 358
187 193 194 197 193 194 191 195 205 213 240 109 93 81 55 41 54 124 105 125 118 145 90 73 115 94 64 135 152 32 36 171 170 152 208 134 66 97 93 78 50 14 1 348
184 190 191 192 189 191 186 191 198 202 235 125 113 126 61 30 107 172 136 144 130 130 118 139 134 93 128 114 236 107 23 115 93 103 241 128 110 104 100 77 56 18 352 343
181 188 187 189 186 185 181 187 195 199 172 132 135 108 61 36 79 164 159 135 123 115 98 86 101 110 184 180 157 129 185 98 125 58 130 131 120 131 119 86 36 2 350 347
179 184 186 187 183 179 179 185 191 205 193 135 162 114 68 59 83 106 117 125 118 97 70 55 87 110 116 57 91 74 190 165 154 218 180 134 147 150 127 44 4 352 350 1
179 182 183 181 178 173 170 183 200 193 186 139 140 120 80 88 89 109 109 106 99 94 90 97 97 93 97 96 154 238 149 139 120 143 157 143 142 146 114 12 356 355 2 11
181 177 175 174 171 168 170 183 176 186 197 223 102 36 90 110 104 93 77 81 78 79 94 75 113 116 104 103 177 170 151 132 132 141 136 132 154 163 98 355 0 10 16 28
175 167 164 166 166 163 171 167 164 179 191 171 105 309 94 114 87 79 56 73 78 53 85 98 111 130 82 177 186 155 146 141 146 156 179 163 159 157 45 9 9 27 47 58
164 156 157 156 160 146 155 155 153 152 178 156 121 138 193 145 86 82 65 64 57 42 78 85 131 325 224 207 168 169 164 162 164 159 154 146 157 138 24 7 23 52 75 66
151 148 139 127 151 134 126 125 142 158 207 209 158 141 133 137 111 74 91 42 90 86 281 124 78 252 240 199 190 176 169 171 168 157 161 171 177 205 347 25 30 83 98 71
144 147 129 140 140 134 126 137 159 163 184 197 167 167 136 143 112 142 95 149 73 109 263 128 313 281 228 187 175 176 174 168 164 185 156 171 219 292 345 12 52 157 125 79
148 140 136 134 152 121 114 135 119 173 208 176 161 156 120 125 122 102 115 102 60 185 160 85 265 254 196 168 163 166 168 169 167 164 155 113 353 346 340 345 152 159 133 102
133 130 127 143 134 90 159 181 209 181 172 164 160 126 120 120 110 86 95 92 195 138 72 229 228 178 166 162 159 158 160 166 164 152 112 20 2 10 31 103 124 137 145 134
131 108 137 167 186 217 190 159 153 156 158 153 142 114 116 119 84 129 106 160 118 84 216 237 219 173 162 160 160 161 160 161 155 149 83 20 14 36 75 117 130 131 135 120
138 149 177 189 191 168 174 153 145 152 160 152 131 91 109 67 103 61 111 112 188 205 227 230 190 171 168 166 164 164 162 160 163 162 76 8 29 105 120 134 135 135 141 136
155 169 127 119 129 146 164 168 161 161 157 153 135 103 91 149 130 129 190 143 208 244 211 209 170 172 172 169 166 163 159 161 164 159 307 301 148 142 141 141 141 135 136 139
169 188 200 165 177 171 171 174 165 163 154 154 126 108 179 130 116 181 176 189 213 204 193 176 177 175 171 169 165 164 163 161 154 158 254 200 155 144 151 148 148 144 146 153
Wind_Speed_850mb
47 41 34 26 23 20 19 13 5 4 2 7 2 2 6 12 14 7 4 6 6 6 9 10 7 6 5 22 3 6 4 8 4 2 3 3 5 3 7 9 5 4 6 7
50 43 36 29 23 17 13 9 9 2 6 2 4 10 9 10 8 8 10 6 6 4 9 13 7 5 7 19 9 5 4 7 6 13 12 12 12 10 8 9 7 4 9 6
52 46 40 33 26 18 9 6 4 4 10 4 3 5 7 10 8 5 6 6 11 10 13 12 11 6 10 12 10 14 9 8 9 11 5 3 8 13 8 6 6 8 3 7
54 50 44 38 30 21 10 5 5 2 4 5 6 5 5 8 11 12 18 9 9 12 9 10 9 5 4 12 10 9 9 8 5 9 11 13 9 14 20 10 2 5 10 6
57 53 48 41 34 25 19 4 3 3 9 11 4 7 5 5 8 7 8 10 5 9 12 11 13 10 3 3 13 8 8 3 4 12 15 15 16 14 13 13 11 11 9 2
60 58 54 48 40 31 18 14 8 6 5 5 4 5 8 4 5 15 10 9 16 19 7 31 25 22 23 13 8 5 8 9 5 1 5 5 12 9 7 5 6 6 3 8
64 63 58 53 46 38 26 13 8 5 5 2 2 5 6 5 7 10 7 16 12 18 58 54 45 49 44 45 28 9 9 8 4 3 5 4 6 5 5 11 3 4 3 5
71 66 63 58 50 43 38 15 11 6 3 6 9 13 8 3 12 9 11 13 23 34 22 11 10 11 11 13 14 18 11 9 8 7 5 2 4 5 2 3 3 2 5 11
73 70 66 61 52 46 39 26 16 7 3 4 8 5 6 3 4 8 7 18 24 11 9 7 6 4 6 3 5 1 9 13 9 4 7 6 4 5 29 7 7 6 10 15
71 74 69 63 56 49 44 34 18 8 3 5 6 4 3 2 5 7 3 4 6 6 5 7 4 3 5 5 6 4 8 8 8 3 5 3 5 25 13 7 7 13 14 18
71 74 71 65 59 52 47 39 20 10 5 5 12 18 8 2 4 8 5 8 9 9 9 6 3 5 1 7 3 2 5 7 1 4 5 4 18 6 5 4 9 11 19 20
69 75 70 67 60 55 47 39 27 16 12 2 11 14 19 17 5 10 6 8 6 8 9 3 6 5 5 4 3 5 4 8 8 6 7 4 14 21 14 9 9 12 13 19
62 75 70 67 62 58 50 41 30 15 1 5 9 6 13 14 5 13 6 6 8 10 9 13 6 10 6 5 4 6 4 4 8 5 3 11 15 13 10 10 11 10 15 26
64 78 68 67 63 59 54 40 32 17 4 3 4 8 15 22 12 14 9 18 26 22 13 10 6 7 5 6 6 6 4 5 9 3 4 13 9 9 9 8 8 14 26 33
71 77 69 67 63 56 57 37 33 21 6 5 10 15 17 24 25 30 29 26 25 12 9 11 4 7 7 5 5 1 6 12 8 8 26 12 14 13 8 6 15 25 31 27
67 75 69 69 65 57 53 17 28 22 7 4 3 7 9 15 21 25 27 27 23 15 10 9 8 6 4 6 3 4 7 15 8 12 31 14 25 16 6 8 18 26 23 22
72 77 71 69 64 67 44 14 23 31 16 5 6 6 5 11 14 17 18 18 17 11 10 7 8 5 4 5 6 22 20 16 27 29 31 25 21 8 3 11 19 20 17 17
82 78 70 65 61 55 24 16 42 40 10 2 7 3 4 6 6 7 8 7 9 12 7 7 5 8 3 2 8 32 28 34 33 33 7 10 19 11 2 12 15 11 15 19
86 82 74 60 56 21 24 31 43 27 5 5 6 9 7 9 9 7 6 7 8 5 6 4 5 3 5 12 39 44 45 33 32 25 16 18 12 6 5 11 11 9 15 17
93 89 42 19 47 47 49 23 11 8 4 6 5 10 5 12 6 6 4 7 3 4 3 4 4 7 12 12 37 43 48 24 33 28 22 18 10 3 4 7 8 6 11 14
87 23 14 67 71 30 10 11 12 9 4 12 12 10 11 11 8 7 3 5 1 4 6 6 3 7 9 21 39 47 34 26 23 7 11 9 3 2 4 6 1 7 9 11
37 29 78 72 21 8 10 5 8 6 12 20 25 18 16 14 9 9 4 6 4 4 5 5 4 7 10 36 48 50 40 30 21 12 6 2 4 5 6 5 7 8 7 10
76 56 17 16 5 9 16 17 7 7 20 27 29 16 12 11 8 12 6 6 5 8 4 6 9 9 27 52 57 49 39 28 17 10 3 5 7 8 6 7 8 6 4 9
13 9 11 10 10 10 10 10 12 15 33 58 59 24 9 9 8 7 8 2 7 4 1 10 6 41 52 57 53 46 36 23 13 6 2 5 7 6 8 10 9 7 5 9
8 14 12 12 12 14 29 36 42 41 74 76 41 20 12 7 8 4 7 5 4 9 9 6 12 58 60 57 48 37 29 20 11 5 1 3 4 7 10 10 10 8 7 9
11 8 8 6 14 8 23 44 39 66 77 62 24 11 8 3 9 7 10 15 12 8 9 11 37 64 60 54 44 33 24 14 8 4 0 1 4 9 12 11 13 10 11 14
10 6 14 15 21 30 41 45 49 75 76 14 15 9 12 12 8 6 9 11 7 11 17 23 50 67 62 54 44 33 21 14 7 2 1 1 10 15 13 14 13 12 13 16
Wind_Direction_850mb
230 229 234 239 254 277 303 315 339 310 293 8 21 232 219 305 286 336 328 104 92 117 105 71 84 105 319 342 321 55 353 128 80 127 360 266 38 109 111 111 223 69 133 256
228 227 227 229 239 258 289 300 280 263 218 194 303 292 279 260 301 331 348 65 72 80 110 101 90 107 12 30 55 96 183 22 45 354 355 9 43 348 81 95 95 167 138 239
222 222 221 222 227 237 252 297 342 216 195 203 172 316 290 296 309 294 23 49 90 83 46 20 136 110 29 27 73 86 90 81 135 169 207 203 20 350 357 96 95 165 195 140
215 217 217 217 220 223 213 249 269 318 290 295 242 320 287 307 359 346 29 26 45 121 92 56 89 81 64 29 29 47 86 81 60 42 83 82 93 49 36 70 30 97 165 108
210 212 214 214 216 213 214 234 292 318 286 301 215 179 263 311 327 7 342 100 16 89 135 168 166 130 137 153 27 58 24 123 7 46 63 74 71 39 57 53 55 67 83 32
209 209 210 211 211 207 203 218 257 281 287 335 148 214 263 275 304 24 70 115 91 52 356 115 106 98 94 89 102 93 72 118 82 93 318 269 32 357 43 75 36 158 263 238
206 205 208 210 208 207 203 217 206 247 293 334 243 323 278 288 306 135 33 42 81 123 107 98 86 78 72 61 42 71 113 88 75 146 26 55 275 10 80 117 86 59 66 272
206 203 205 210 207 206 206 219 216 235 229 286 295 329 302 54 85 77 69 43 120 141 100 61 53 359 29 28 34 26 62 118 64 105 74 189 192 260 311 315 281 253 282 320
203 201 203 206 205 203 204 205 225 242 231 330 311 318 329 103 55 28 64 81 137 162 78 77 108 165 147 51 16 48 48 71 103 79 102 173 255 314 351 136 322 358 350 335
199 199 200 203 202 199 200 201 226 230 285 19 30 46 292 41 86 107 39 63 107 66 63 74 113 103 163 118 110 11 13 9 79 73 113 277 331 317 336 52 262 3 6 351
195 195 198 200 198 197 197 195 211 208 258 66 71 61 50 74 56 123 132 69 15 51 65 110 169 105 117 83 96 113 136 119 122 75 75 8 356 359 67 195 51 7 357 358
187 193 194 197 193 194 191 195 205 213 240 109 93 81 55 41 54 124 105 125 118 145 90 73 115 94 64 135 152 32 36 171 170 152 208 134 66 97 93 78 50 14 1 348
184 190 191 192 189 191 186 191 198 202 235 125 113 126 61 30 107 172 136 144 130 130 118 139 134 93 128 114 236 107 23 115 93 103 241 128 110 104 100 77 56 18 352 343
181 188 187 189 186 185 181 187 195 199 172 132 135 108 61 36 79 164 159 135 123 115 98 86 101 110 184 180 157 129 185 98 125 58 130 131 120 131 119 86 36 2 350 347
179 184 186 187 183 179 179 185 191 205 193 135 162 114 68 59 83 106 117 125 118 97 70 55 87 110 116 57 91 74 190 165 154 218 180 134 147 150 127 44 4 352 350 1
179 182 183 181 178 173 170 183 200 193 186 139 140 120 80 88 89 109 109 106 99 94 90 97 97 93 97 96 154 238 149 139 120 143 157 143 142 146 114 12 356 355 2 11
181 177 175 174 171 168 170 183 176 186 197 223 102 36 90 110 104 93 77 81 78 79 94 75 113 116 104 103 177 170 151 132 132 141 136 132 154 163 98 355 0 10 16 28
175 167 164 166 166 163 171 167 164 179 191 171 105 309 94 114 87 79 56 73 78 53 85 98 111 130 82 177 186 155 146 141 146 156 179 163 159 157 45 9 9 27 47 58
164 156 157 156 160 146 155 155 153 152 178 156 121 138 193 145 86 82 65 64 57 42 78 85 131 325 224 207 168 169 164 162 164 159 154 146 157 138 24 7 23 52 75 66
151 148 139 127 151 134 126 125 142 158 207 209 158 141 133 137 111 74 91 42 90 86 281 124 78 252 240 199 190 176 169 171 168 157 161 171 177 205 347 25 30 83 98 71
144 147 129 140 140 134 126 137 159 163 184 197 167 167 136 143 112 142 95 149 73 109 263 128 313 281 228 187 175 176 174 168 164 185 156 171 219 292 345 12 52 157 125 79
148 140 136 134 152 121 114 135 119 173 208 176 161 156 120 125 122 102 115 102 60 185 160 85 265 254 196 168 163 166 168 169 167 164 155 113 353 346 340 345 152 159 133 102
133 130 127 143 134 90 159 181 209 181 172 164 160 126 120 120 110 86 95 92 195 138 72 229 228 178 166 162 159 158 160 166 164 152 112 20 2 10 31 103 124 137 145 134
131 108 137 167 186 217 190 159 153 156 158 153 142 114 116 119 84 129 106 160 118 84 216 237 219 173 162 160 160 161 160 161 155 149 83 20 14 36 75 117 130 131 135 120
138 149 177 189 191 168 174 153 145 152 160 152 131 91 109 67 103 61 111 112 188 205 227 230 190 171 168 166 164 164 162 160 163 162 76 8 29 105 120 134 135 135 141 136
155 169 127 119 129 146 164 168 161 161 157 153 135 103 91 149 130 129 190 143 208 244 211 209 170 172 172 169 166 163 159 161 164 159 307 301 148 142 141 141 141 135 136 139
169 188 200 165 177 171 171 174 165 163 154 154 126 108 179 130 116 181 176 189 213 204 193 176 177 175 171 169 165 164 163 161 154 158 254 200 155 144 151 148 148 144 146 153